Regional Weather Roundup
Issued by NWS

Home | Current Version | Previous Version | Graphics & Text | Print | Product List | Glossary On
Versions: 1 2 3 4 5 6 7 8 9 10 11 12 13 14 15 16 17 18 19 20 21 22 23 24 25 26 27 28 29 30 31 32 33 34 35 36 37 38 39 40 41 42 43 44 45 46 47 48 49 50
000
ASUS45 KSLC 231910
RWRUT

UTAH REGIONAL WEATHER ROUNDUP
NATIONAL WEATHER SERVICE SALT LAKE CITY UT
100 PM MDT TUE SEP 23 2014

UTZ001>011-023>025-232000-

NORTHERN UTAH

CITY           SKY/WX    TMP DP  RH WIND       PRES   REMARKS
HILL AFB       MOSUNNY   76  50  39 W5        30.20S
LOGAN          SUNNY     72  52  49 W3        30.17F
OGDEN          MOSUNNY   77  50  38 W7        30.17F
PROVO AIRPORT  NOT AVBL
SALT LAKE CITY MOSUNNY   79  49  34 VRB6      30.15F
VERNAL         SUNNY     70  55  59 E3        30.22F
WENDOVER       SUNNY     72  52  49 E5        30.17S
HEBER CITY     SUNNY     73  52  46 N3        30.23F
WEST JORDAN    SUNNY     79  46  31 S10       30.18F

$$

UTZ012>022-026-027-232000-

SOUTHERN UTAH

CITY           SKY/WX    TMP DP  RH WIND       PRES   REMARKS
BRYCE CANYON   SUNNY     68  41  37 E3        30.38F
CEDAR CITY     SUNNY     75  39  27 W3        30.24F
MILFORD        SUNNY     78  45  30 S12       30.20F
MOAB/CYNLANDS  SUNNY     79  54  41 N8        30.16F
PRICE          SUNNY     74  50  42 SW7       30.25F
ST GEORGE      CLEAR     82  46  28 CALM      30.11F

$$

REGIONAL REPORTS     COLORADO/ARIZONA

CITY           SKY/WX    TMP DP  RH WIND       PRES   REMARKS
CRAIG, CO      PTSUNNY   71  47  42 W13G20    30.26F
GRAND JUNCTION SUNNY     77  51  40 VRB3      30.19F
RIFLE          PTSUNNY   70  51  51 VRB3      30.23F
MONTROSE       MOSUNNY   76  48  37 CALM      30.27F
CORTEZ         SUNNY     78  38  23 W9        30.28F
PAGE, AZ       SUNNY     84  39  20 E5        30.17F
GRAND CANYON   SUNNY     73  32  22 SW8       30.33F
KINGMAN        SUNNY     86  30  13 W5        30.12F
FLAGSTAFF      SUNNY     71  42  35 VRB5      30.35F

$$

REGIONAL REPORTS    NEVADA/IDAHO/WYOMING

CITY           SKY/WX    TMP DP  RH WIND       PRES   REMARKS
LAS VEGAS, NV  SUNNY     89  37  16 S5        30.00F
ELY            SUNNY     75  39  27 VRB5      30.26F
ELKO           SUNNY     78  43  28 VRB3      30.16F
POCATELLO, ID  MOSUNNY   77  51  40 VRB3      30.16F
BURLEY         PTSUNNY   76  49  38 VRB3      30.11F
EVANSTON, WY   MOSUNNY   69  42  37 SW16      30.31F
ROCK SPRINGS   MOSUNNY   67  43  41 NW20      30.28F

$$



USA.gov is the U.S. government's official web portal to all federal, state and local government web resources and services.